{"data":{"norad_id":68203,"epoch":"2026-09-20T00:20:03.722208Z","epoch_age_seconds":117366,"freshness":"FRESH","line1":"1 68203U 26052F   26263.01393197  .00003949  00000+0  22978-3 0  9991","line2":"2 68203  97.5248 336.5661 0009760 347.4203  12.6782 15.12591399 28383","mean_motion":15.12591399,"eccentricity":0.000976,"inclination_deg":97.5248,"raan_deg":336.5661,"arg_perigee_deg":347.4203,"mean_anomaly_deg":12.6782,"bstar":0.00022978,"rev_number":2838,"period_min":95.200858668905,"perigee_km":521.55988503645,"apogee_km":535.04125116938,"semimajor_km":6906.4375681029,"source":"CELESTRAK","updated_at":"2026-09-20T09:00:24.068828Z"}}